Weather in Buston

Tajikistan     40°13′59″N   69°41′51″E
temp.,
°C
wind,
m/s
gust,
m/s
humid.,
%
clouds,
%
prec.,
mm/h
press.,
hPa
HPBL,
m
24 june, thu
thu2423:00+26wsw34190 0.0 1011133
02:00+24wsw34200 0.0 1010119
05:00+23w33210 0.0 100995
08:00+27w45180 0.0 1010505
11:00+32w55130 0.0 10081271
14:00+34w78120 0.0 10072026
17:00+35w89100 0.0 10062897
20:00+31wsw591411 0.0 1007401
25 june, fri
fri2523:00+28wsw23170 0.0 100794
02:00+26sw35210 0.0 1007122
05:00+24w47260 0.0 1007169
08:00+27wsw67270 0.0 1008526
11:00+32w77223 0.0 10061611
14:00+34w78190 0.0 10042425
17:00+34wnw89170 0.0 10042806
20:00+29wnw69200 0.0 1005446
26 june, sat
sat2623:00+27wsw58193 0.0 1006298
02:00+24wsw5921100 0.0 1006320
05:00+22w46232 0.0 1007173
08:00+26w56190 0.0 1008530
11:00+30w66150 0.0 10071149
14:00+34w78120 0.0 10051744
17:00+34w78120 0.0 10052020
20:00+30w46160 0.0 1005411
27 june, sun
sun2723:00+27wsw23190 0.0 1006107
02:00+26wsw34200 0.0 100588
05:00+25wsw23210 0.0 100677
08:00+28wnw11180 0.0 1008419
11:00+33ene22140 0.0 10061024
14:00+37w11110 0.0 10041370
17:00+38w76110 0.0 10031960
20:00+34w4615100 0.0 1005329
28 june, mon
mon2823:00+30sw222161 0.0 100570
02:00+29wsw23220 0.0 100473
05:00+27w22240 0.0 100542
08:00+31wsw12180 0.0 1006385
11:00+36wsw22120 0.0 10041130
14:00+40wsw42100 0.0 10022347
17:00+34sw111420100 0.0 1004698
20:00+31s2226100 0.0 1004120